FW0151 Weather Reports


time (UTC)temp
F
wind
direction
speed
knots
gust
knots
rain 1hr
in
rain 24hr
in
rain mn
in
humidity
%
barometer
mb
20260507113518 59 0.0 2.6 0.00 0.00 0.00 68 1015.8
20260507112519 59 315 0.9 3.5 0.00 0.00 0.00 65 1015.9
20260507111518 59 225 0.9 4.3 0.00 0.00 0.00 69 1015.9
20260507110530 59 248 0.9 7.0 0.00 0.00 0.00 69 1016.0
20260507105519 58 225 3.5 6.1 0.00 0.00 0.00 68 1016.0
20260507104518 58 225 2.6 5.2 0.00 0.00 0.00 68 1016.1
20260507103518 58 225 3.5 6.1 0.00 0.00 0.00 69 1016.2
20260507102518 58 203 1.7 3.5 0.00 0.00 0.00 73 1016.1
20260507101518 57 225 0.9 5.2 0.00 0.00 0.00 73 1016.1
20260507100518 57 248 0.9 4.3 0.00 0.00 0.00 76 1016.0
20260507095519 56 248 1.7 3.5 0.00 0.00 0.00 77 1016.0
20260507094518 56 248 0.9 2.6 0.00 0.00 0.00 77 1016.0
20260507093519 56 225 0.9 2.6 0.00 0.00 0.00 78 1016.0
20260507092518 56 203 0.9 3.5 0.00 0.00 0.00 80 1015.9
20260507091518 55 248 0.9 3.5 0.00 0.00 0.00 79 1015.8
20260507090518 55 248 0.9 2.6 0.00 0.00 0.00 80 1015.8
20260507085519 55 0.0 2.6 0.00 0.00 0.00 81 1015.7
20260507084518 55 248 0.9 2.6 0.00 0.00 0.00 81 1015.7
20260507083519 55 248 0.9 1.7 0.00 0.00 0.00 81 1015.7
20260507082520 55 0.0 1.7 0.00 0.00 0.00 81 1015.5
20260507081516 54 0.0 0.9 0.00 0.00 0.00 81 1015.5
20260507080519 54 0.0 2.6 0.00 0.00 0.00 82 1015.5
20260507075518 54 0.0 0.9 0.00 0.00 0.00 81 1015.5
20260507074518 54 0.0 0.0 0.00 0.00 0.00 84 1015.4
20260507073518 53 0.0 0.0 0.00 0.00 0.00 84 1015.4
20260507072523 53 0.0 0.9 0.00 0.00 0.00 84 1015.3
20260507071540 53 0.0 0.9 0.00 0.00 0.00 85 1015.2
20260507070520 52 0.0 0.0 0.00 0.00 0.00 85 1015.2
20260507065520 52 0.0 0.9 0.00 0.00 0.00 86 1015.1
20260507064519 51 0.0 0.9 0.00 0.00 0.00 86 1015.1
20260507063519 51 0.0 0.9 0.00 0.00 0.00 87 1015.1
20260507062518 51 0.0 0.9 0.00 0.00 0.00 89 1015.0
20260507061518 51 0.0 0.0 0.00 0.00 0.00 90 1014.9
20260507060519 50 0.0 0.0 0.00 0.00 0.00 90 1014.9
20260507055520 50 0.0 0.0 0.00 0.00 0.00 90 1014.8
20260507054520 50 0.0 0.0 0.00 0.00 0.00 91 1014.7
20260507053518 50 0.0 0.0 0.00 0.00 0.00 91 1014.6
20260507052518 49 0.0 0.0 0.00 0.00 0.00 91 1014.5
20260507051518 49 0.0 0.0 0.00 0.00 0.00 90 1014.5
20260507050518 49 0.0 0.0 0.00 0.00 0.00 90 1014.4
20260507045521 49 0.0 0.0 0.00 0.00 0.00 90 1014.3
20260507044520 49 0.0 0.0 0.00 0.00 0.00 90 1014.2
20260507043519 49 0.0 0.0 0.00 0.00 0.00 90 1014.2
20260507042547 49 0.0 0.0 0.00 0.00 0.00 90 1014.2
20260507041518 49 0.0 0.0 0.00 0.00 0.00 90 1014.1
20260507040518 49 0.0 0.0 0.00 0.00 0.00 90 1014.1
20260507035518 49 0.0 0.0 0.00 0.00 0.00 90 1014.0
20260507034518 49 0.0 0.0 0.00 0.00 0.00 90 1013.9
20260507033518 49 0.0 0.0 0.00 0.00 0.00 90 1013.9
20260507032524 49 0.0 0.0 0.00 0.00 0.00 90 1013.9
20260507031519 49 0.0 0.0 0.00 0.00 0.00 90 1013.8
20260507030519 49 0.0 0.0 0.00 0.00 0.00 90 1013.8
20260507025518 49 0.0 0.0 0.00 0.00 0.00 90 1013.7
20260507024518 49 0.0 0.0 0.00 0.00 0.00 89 1013.8
20260507023518 50 0.0 0.0 0.00 0.00 0.00 89 1013.8
20260507022518 50 0.0 0.0 0.00 0.00 0.00 89 1013.7
20260507021521 50 0.0 0.0 0.00 0.00 0.00 89 1013.7
20260507020540 50 0.0 0.0 0.00 0.00 0.00 89 1013.7
20260507015518 50 0.0 0.0 0.00 0.00 0.00 89 1013.6
20260507014518 50 0.0 0.0 0.00 0.00 0.00 88 1013.5
20260507013518 50 0.0 0.0 0.00 0.00 0.00 88 1013.5
20260507012538 50 0.0 0.9 0.00 0.00 0.00 88 1013.5
20260507011518 50 0.0 1.7 0.00 0.00 0.00 88 1013.6
20260507010518 50 0.0 1.7 0.00 0.00 0.00 88 1013.5
20260507005518 50 0.0 1.7 0.00 0.00 0.00 88 1013.4
20260507004518 50 338 0.9 1.7 0.00 0.00 0.00 88 1013.5
20260507003518 50 0.0 0.9 0.00 0.00 0.00 88 1013.5
20260507002518 50 0.0 0.0 0.00 0.00 0.00 88 1013.4
20260507001520 50 0.0 0.9 0.00 0.00 0.00 89 1013.5
20260507000520 50 0.0 0.9 0.00 0.00 0.00 89 1013.5
20260506235620 49 0.0 0.9 0.00 0.00 0.00 89 1013.5
20260506234518 49 0.0 0.9 0.00 0.00 0.00 89 1013.5
20260506233518 49 0.0 0.0 0.00 0.00 0.00 89 1013.4
20260506232538 49 0.0 0.9 0.00 0.00 0.00 89 1013.4
20260506231518 48 0.0 0.0 0.00 0.00 0.00 89 1013.4
20260506230520 48 0.0 0.0 0.00 0.00 0.00 89 1013.3
20260506225520 48 0.0 0.0 0.00 0.00 0.00 88 1013.3
20260506224520 48 0.0 0.0 0.00 0.00 0.00 88 1013.3
20260506223516 48 0.0 0.0 0.00 0.00 0.00 88 1013.2
20260506222536 48 0.0 0.0 0.00 0.00 0.00 87 1013.2
20260506221517 48 0.0 0.0 0.00 0.00 0.00 87 1013.1
20260506220518 48 0.0 0.9 0.00 0.00 0.00 87 1013.1
20260506215516 48 0.0 0.9 0.00 0.00 0.00 87 1013.1
20260506214536 48 338 0.9 2.6 0.00 0.00 0.00 87 1013.0
20260506213518 48 0.0 1.7 0.00 0.00 0.00 87 1013.0
20260506212538 48 338 0.9 1.7 0.00 0.00 0.00 87 1012.9
20260506211516 47 0.0 0.0 0.00 0.00 0.00 87 1012.9
20260506210516 47 0.0 0.9 0.00 0.00 0.00 87 1012.9
20260506205516 47 0.0 0.9 0.00 0.00 0.00 86 1012.9
20260506204536 47 0.0 0.9 0.00 0.00 0.00 85 1012.9
20260506203516 48 0.0 1.7 0.00 0.00 0.00 85 1012.8
20260506202516 48 0.0 1.7 0.00 0.00 0.00 85 1012.8
20260506201516 48 0.0 1.7 0.00 0.00 0.00 84 1012.8
20260506200518 49 338 0.9 1.7 0.00 0.00 0.00 83 1012.7
20260506195517 49 338 0.9 2.6 0.00 0.00 0.00 83 1012.5
20260506194516 50 338 1.7 3.5 0.00 0.00 0.00 82 1012.5
20260506193519 50 338 2.6 5.2 0.00 0.00 0.00 82 1012.4
20260506192518 50 338 1.7 4.3 0.00 0.00 0.00 81 1012.3
20260506191518 51 338 2.6 5.2 0.00 0.00 0.00 80 1012.2
20260506190521 51 338 3.5 6.1 0.00 0.00 0.00 80 1012.1
20260506185538 52 338 2.6 4.3 0.00 0.00 0.00 79 1012.0
20260506184519 52 338 4.3 7.0 0.00 0.00 0.00 78 1012.0
20260506183516 53 338 4.3 9.6 0.00 0.00 0.00 78 1012.0
20260506182516 53 0 4.3 7.0 0.00 0.00 0.00 78 1011.9
20260506181516 53 338 5.2 10.4 0.00 0.00 0.00 76 1011.7
20260506180516 53 338 5.2 11.3 0.00 0.00 0.00 78 1011.6
20260506175516 53 338 6.1 10.4 0.00 0.00 0.00 77 1011.5
20260506174516 54 338 6.1 11.3 0.00 0.00 0.00 76 1011.3
20260506173516 54 0 5.2 7.8 0.00 0.00 0.00 77 1011.3
20260506172516 54 338 4.3 8.7 0.00 0.00 0.00 76 1011.1
20260506171636 54 0 5.2 9.6 0.00 0.00 0.00 77 1011.0
20260506170538 54 0 5.2 10.4 0.00 0.00 0.00 77 1011.0
20260506165519 54 0 6.1 9.6 0.00 0.00 0.00 76 1011.0
20260506164518 54 0 7.0 11.3 0.00 0.00 0.00 76 1010.9
20260506163519 55 0 7.0 10.4 0.00 0.00 0.00 76 1010.9
20260506162518 55 0 6.1 10.4 0.00 0.00 0.00 76 1010.9
20260506161538 55 0 7.0 11.3 0.00 0.00 0.00 76 1010.9
20260506160558 55 23 6.1 9.6 0.00 0.00 0.00 76 1010.8
20260506155518 56 23 6.1 9.6 0.00 0.00 0.00 75 1010.8
20260506154518 55 338 6.1 11.3 0.00 0.00 0.00 77 1010.7
20260506153518 55 0 6.1 10.4 0.00 0.00 0.00 76 1010.8
20260506152517 55 338 6.1 13.0 0.00 0.00 0.00 76 1010.8
20260506151516 55 23 5.2 12.2 0.00 0.00 0.00 77 1010.7
20260506150603 54 23 7.0 9.6 0.00 0.00 0.00 77 1010.8
20260506145518 54 0 5.2 9.6 0.00 0.00 0.00 76 1010.8
20260506144518 55 0 6.1 10.4 0.00 0.00 0.00 75 1010.8
20260506143517 55 338 6.1 11.3 0.00 0.00 0.00 74 1010.7
20260506142516 55 338 5.2 11.3 0.00 0.00 0.00 74 1010.6
20260506141516 56 338 5.2 10.4 0.00 0.00 0.00 73 1010.7
20260506140517 56 0 7.0 12.2 0.00 0.00 0.00 74 1010.6
20260506135537 56 338 6.1 12.2 0.00 0.00 0.00 73 1010.7
20260506134516 56 338 7.0 10.4 0.00 0.00 0.00 73 1010.7
20260506133516 56 338 7.0 11.3 0.00 0.00 0.00 74 1010.7
20260506132519 55 0 6.1 10.4 0.00 0.00 0.00 74 1010.6
20260506131538 55 23 6.1 12.2 0.00 0.00 0.00 74 1010.7
20260506130516 55 0 4.3 8.7 0.00 0.00 0.00 74 1010.6
20260506125518 54 0 5.2 8.7 0.00 0.00 0.00 74 1010.6
20260506124517 54 338 5.2 9.6 0.00 0.00 0.00 75 1010.6
20260506123516 54 338 6.1 10.4 0.00 0.00 0.00 75 1010.4
20260506122516 54 0 5.2 8.7 0.00 0.00 0.00 75 1010.4
20260506121516 55 0 6.1 9.6 0.00 0.00 0.00 74 1010.4
20260506120516 55 23 5.2 10.4 0.00 0.00 0.00 73 1010.3
20260506115536 55 338 7.0 10.4 0.00 0.00 0.00 73 1010.3
20260506114518 55 0 6.1 10.4 0.00 0.00 0.00 73 1010.4